Weather History for Madera, CA

Change the Weather History Date:

Thursday, December 20, 2012

  Actual Average Record
Temperature  
Mean Temperature 43 °F 45 °F  
Max Temperature 58 °F 53 °F 69 °F (2005)
Min Temperature 27 °F 36 °F 25 °F (2013)
Degree Days  
Heating Degree Days 22    
Month to date heating degree days 312  
Since 1 July heating degree days 680  
Cooling Degree Days 0    
Month to date cooling degree days 0  
Year to date cooling degree days 1737  
Moisture  
Dew Point 27 °F    
Average Humidity 58    
Maximum Humidity 92    
Minimum Humidity 24    
Precipitation  
Precipitation T in 0.07 in 0.38 in (2001)
Month to date precipitation 0.98 0.95  
Year to date precipitation 9.38 11.27  
Since 1 July precipitation 3.16 3.27  
Snow  
Snow 0.00 in - - ()
Month to date snowfall 0.0  
Since 1 July snowfall 0.0  
Snow Depth 0.00 in    
Sea Level Pressure  
Sea Level Pressure 30.17 in    
Wind  
Wind Speed 7 mph (ESE)    
Max Wind Speed 15 mph    
Max Gust Speed 20 mph    
Visibility 10 miles    
Events Snow    
T = Trace of Precipitation, MM = Missing Value Source: NWS Daily Summary

Daily Weather History Graph

Daily Weather History Graph

Search for Another Location

Airport:

Trip Planner

Search our weather history database for the weather conditions in past years. The results will help you decide how hot, cold, wet, or windy it might be!

Date:

Astronomy

Dec. 20, 2012 Rise Set
Actual Time 7:09 AM PST 4:47 PM PST
Civil Twilight 6:40 AM PST 5:16 PM PST
Nautical Twilight 6:08 AM PST 5:48 PM PST
Astronomical Twilight 5:36 AM PST 6:20 PM PST
Moon 12:00 PM PST (12/20) 12:09 AM PST (12/20)
Length of Visible Light 10h 35m
Length of Day
9h 37m
First Quarter, 56% of the Moon is Illuminated
Dec 20
First Quarter
Dec 28
Full
Jan 4
Last Quarter
Jan 11
New
Jan 18
First Quarter

Hourly Weather History & Observations

Time (PST) Temp. Windchill Dew Point Humidity Pressure Visibility Wind Dir Wind Speed Gust Speed Precip Events Conditions
12:53 AM 34.0 °F 28.8 °F 28.9 °F 82% 30.28 in 10.0 mi East 5.8 mph - N/A   Clear
1:53 AM 33.1 °F 26.9 °F 28.0 °F 82% 30.27 in 10.0 mi East 6.9 mph - N/A   Clear
2:53 AM 36.0 °F 29.0 °F 30.0 °F 79% 30.23 in 9.0 mi East 9.2 mph - 0.00 in Snow Light Snow
3:53 AM 35.1 °F 28.6 °F 28.9 °F 78% 30.23 in 10.0 mi ESE 8.1 mph - 0.00 in   Clear
4:53 AM 30.0 °F 26.5 °F 27.0 °F 88% 30.23 in 10.0 mi West 3.5 mph - N/A   Clear
5:53 AM 28.9 °F - 25.0 °F 85% 30.25 in 10.0 mi Calm Calm - N/A   Clear
6:53 AM 28.9 °F - 26.1 °F 89% 30.26 in 10.0 mi Calm Calm - N/A   Clear
7:53 AM 30.0 °F - 28.0 °F 92% 30.25 in 8.0 mi Calm Calm - N/A   Clear
8:53 AM 37.0 °F 33.3 °F 30.9 °F 79% 30.25 in 9.0 mi East 4.6 mph - 0.00 in Snow Light Snow
9:53 AM 48.0 °F - 33.1 °F 56% 30.25 in 10.0 mi SE 10.4 mph - 0.00 in   Clear
10:53 AM 52.0 °F - 27.0 °F 38% 30.23 in 10.0 mi SSE 10.4 mph - N/A   Clear
11:53 AM 55.0 °F - 21.9 °F 28% 30.19 in 10.0 mi SE 12.7 mph - N/A   Clear
12:53 PM 57.0 °F - 23.0 °F 27% 30.15 in 10.0 mi SE 10.4 mph - N/A   Clear
1:53 PM 57.9 °F - 23.0 °F 26% 30.12 in 10.0 mi SE 10.4 mph - N/A   Clear
2:53 PM 57.0 °F - 21.9 °F 26% 30.10 in 10.0 mi SSE 8.1 mph - N/A   Clear
3:53 PM 55.9 °F - 25.0 °F 30% 30.10 in 10.0 mi SSE 4.6 mph - N/A   Clear
4:53 PM 51.1 °F - 26.1 °F 38% 30.09 in 10.0 mi ESE 6.9 mph - N/A   Clear
5:53 PM 46.0 °F 41.9 °F 28.0 °F 50% 30.09 in 10.0 mi ESE 8.1 mph - N/A   Clear
6:53 PM 44.1 °F 40.1 °F 27.0 °F 51% 30.09 in 10.0 mi East 6.9 mph - N/A   Clear
7:53 PM 42.1 °F 37.7 °F 28.0 °F 58% 30.09 in 10.0 mi ESE 6.9 mph - N/A   Clear
8:53 PM 41.0 °F 36.4 °F 28.0 °F 60% 30.10 in 10.0 mi East 6.9 mph - N/A   Clear
9:53 PM 37.9 °F 32.7 °F 28.0 °F 68% 30.10 in 10.0 mi ESE 6.9 mph - N/A   Clear
10:53 PM 37.9 °F 32.7 °F 27.0 °F 65% 30.10 in 10.0 mi SE 6.9 mph - N/A   Clear
11:53 PM 37.0 °F 31.0 °F 28.9 °F 73% 30.09 in 10.0 mi ESE 8.1 mph - N/A   Clear